Theta_e
317 317 317 316 316 316 317 321 325 328 329 331 333 335 336 337 337 338 337 338 339 338 346 350 349 350 352 357 354 353 356 353 353 354 351 349 350 348 349 348 349 349 348 346 348
318 317 317 317 316 316 316 320 324 326 329 330 333 335 336 337 338 339 339 339 338 341 349 354 357 352 358 356 354 355 353 354 354 353 353 349 349 349 349 349 350 353 351 349 349
318 317 317 317 316 316 316 318 322 325 328 330 332 334 336 336 339 342 340 339 338 344 353 355 356 358 356 355 353 353 355 355 353 352 353 348 348 349 348 351 349 353 353 350 348
318 318 317 317 316 316 316 317 320 323 327 329 331 333 336 336 345 339 340 342 341 348 355 355 354 353 351 353 352 356 354 352 352 353 352 347 348 348 349 349 348 352 351 349 347
318 318 317 317 317 316 316 317 319 322 326 328 330 333 335 336 340 339 339 342 346 351 355 353 350 352 353 351 353 356 353 353 353 352 349 347 347 349 350 350 348 348 348 347 346
318 318 318 317 317 316 316 317 318 321 324 327 330 332 332 338 338 339 339 343 350 355 356 356 350 351 352 352 355 353 353 354 353 350 347 349 349 349 350 350 347 346 346 344 343
316 318 318 317 317 316 316 317 318 321 324 326 328 331 332 337 337 338 339 341 351 353 353 356 355 356 356 355 355 353 356 354 353 352 351 350 352 353 350 350 346 345 345 343 341
315 316 318 317 317 316 316 317 318 321 324 326 328 330 334 337 336 339 340 342 352 351 351 354 355 357 358 357 355 356 354 357 354 353 352 352 357 351 349 350 347 344 345 345 345
314 315 317 317 317 316 316 317 318 321 324 325 328 328 338 337 336 336 340 346 348 350 352 355 356 357 355 356 355 354 357 355 354 351 354 353 355 351 349 351 349 345 345 346 345
314 314 316 317 317 316 316 317 319 321 323 326 327 330 335 338 336 337 338 347 350 352 352 354 355 359 358 356 359 355 354 352 353 354 353 353 353 353 350 350 351 349 346 345 345
314 314 315 317 317 316 316 318 324 327 325 334 337 337 337 333 338 338 341 347 350 351 355 352 355 358 356 355 353 353 353 355 354 354 355 353 352 353 350 349 349 349 349 347 345
314 314 315 316 317 316 317 322 325 323 330 330 330 332 333 334 336 340 341 344 349 354 352 353 356 352 352 355 355 355 356 355 354 352 355 353 350 348 349 348 349 350 351 350 347
314 314 315 316 317 316 317 321 324 324 330 332 329 332 333 331 337 342 342 345 349 353 353 355 352 351 352 354 356 355 354 353 353 354 355 355 349 345 346 348 349 350 351 351 351
314 314 314 315 316 316 320 320 322 324 338 337 332 332 332 334 341 340 342 344 348 352 351 353 351 351 353 355 354 353 352 352 353 355 356 354 348 346 346 348 351 350 350 350 351
315 315 315 316 317 319 321 320 324 323 344 336 332 331 334 341 345 343 342 344 348 351 352 353 352 353 354 354 353 354 348 351 351 352 353 351 352 344 346 346 343 344 345 348 348
316 315 315 316 316 319 320 323 322 337 345 338 334 334 338 342 344 346 346 345 347 348 349 351 349 351 352 351 352 347 350 352 351 350 352 351 354 348 345 346 342 341 341 343 347
317 317 316 316 320 320 321 323 335 342 339 343 339 337 340 344 345 347 348 348 351 355 355 352 352 351 351 353 351 349 350 352 352 350 353 350 351 349 348 345 345 345 346 347 348
318 318 317 316 316 318 322 330 338 340 341 342 343 340 341 343 344 346 348 349 348 350 354 351 353 352 350 352 351 352 352 351 351 347 350 350 351 351 344 343 344 343 344 344 345
318 318 318 317 317 321 326 334 336 340 342 344 344 343 341 342 343 346 346 347 346 348 354 353 355 348 348 350 348 352 352 346 345 341 342 346 349 347 345 346 345 346 347 347 347
317 318 322 317 316 321 329 332 336 335 343 343 346 344 345 343 344 345 347 346 345 346 347 352 353 349 347 347 339 342 343 343 340 343 343 344 346 348 348 347 348 348 349 351 352
317 323 320 317 317 324 331 333 334 337 342 344 344 344 346 346 344 346 348 347 346 347 348 350 350 351 348 347 345 340 340 338 339 339 343 343 343 347 348 345 348 348 349 350 350
321 324 321 317 322 325 331 332 332 338 341 342 341 342 344 344 347 346 348 348 346 348 350 350 351 358 352 343 344 341 342 339 340 342 339 340 346 344 344 344 346 348 348 348 349
323 324 318 318 322 327 330 331 333 337 341 341 342 342 342 343 348 347 346 346 346 347 346 349 351 353 351 341 342 343 338 338 338 338 341 341 348 346 344 345 346 347 346 346 345
325 325 321 320 322 326 330 331 333 333 336 338 340 342 343 342 343 345 347 347 343 345 345 346 348 352 353 345 342 340 337 337 337 339 342 340 350 348 346 346 346 345 344 343 343
322 324 322 322 323 326 330 332 332 333 334 336 339 341 342 345 344 344 343 346 346 345 345 347 348 350 347 343 340 338 336 337 338 339 340 341 340 349 346 345 345 344 343 342 341
322 329 324 324 321 326 324 332 332 332 335 336 338 341 341 344 342 344 341 343 345 349 348 346 351 345 344 337 338 339 340 338 338 339 341 340 344 346 343 342 343 342 341 341 341
323 327 331 326 323 326 329 331 331 333 335 335 337 340 341 341 339 339 338 338 342 350 350 348 348 347 346 341 339 341 341 341 342 341 341 342 345 345 343 341 341 341 340 341 341
Wind_Speed
5 4 4 4 5 5 4 4 5 7 6 6 7 8 11 11 13 8 1 4 9 7 7 6 6 6 5 5 4 3 5 6 6 8 6 8 6 4 4 11 3 2 4 15 26
5 5 4 4 5 5 6 5 5 7 7 7 8 8 11 12 7 2 1 7 8 7 8 6 7 9 5 5 3 5 3 5 4 3 4 4 4 7 5 8 5 7 10 22 27
5 5 5 4 4 5 7 6 6 7 7 7 8 8 11 12 1 3 1 7 8 8 5 4 5 8 7 4 3 1 4 3 3 4 1 5 6 4 1 6 3 8 18 23 25
6 6 6 5 5 5 7 7 7 7 8 8 8 8 10 7 1 1 2 6 6 6 5 4 6 7 5 5 2 6 3 2 3 4 2 6 9 4 1 8 4 12 18 23 23
6 6 7 6 6 6 8 8 7 7 8 7 8 8 9 5 1 0 3 6 5 4 4 2 5 7 6 3 3 5 2 1 1 1 5 8 4 8 8 9 11 15 19 19 20
6 6 7 7 6 7 8 9 8 8 8 7 7 8 7 8 2 1 6 6 6 3 1 1 0 1 1 3 5 1 3 1 3 6 8 7 8 4 8 11 13 16 16 16 18
7 6 7 7 7 7 8 9 9 7 8 7 6 8 9 8 4 1 7 7 5 2 2 2 1 3 2 3 1 2 4 8 5 3 4 7 7 7 14 12 13 12 13 15 17
8 7 8 8 8 7 8 8 9 7 7 7 6 8 7 6 4 4 8 7 6 0 1 2 2 3 3 2 4 6 7 6 6 5 4 7 9 9 14 13 12 13 14 14 16
9 8 7 8 8 7 8 7 8 7 7 6 5 4 4 2 2 7 9 6 6 2 1 2 2 4 5 7 6 7 3 3 6 3 3 6 7 11 15 12 12 13 14 14 15
9 8 7 7 8 7 7 6 7 6 7 6 8 6 7 3 3 9 9 10 5 4 1 2 2 6 6 7 6 7 6 4 2 5 5 5 6 10 15 12 12 12 12 13 14
9 7 7 6 7 7 5 4 4 4 9 8 0 4 5 3 3 6 12 9 6 3 3 2 5 7 1 2 2 3 4 3 2 3 4 1 2 10 13 12 11 13 14 14 14
9 8 7 6 6 6 4 3 3 2 5 13 17 14 9 5 4 7 11 10 9 8 2 5 8 1 5 7 4 3 3 4 4 2 6 4 6 7 12 13 12 12 13 14 15
8 8 7 6 6 7 6 5 6 4 6 6 12 13 11 12 9 11 15 9 5 6 8 9 3 4 4 6 7 7 4 2 0 5 3 4 8 9 11 10 9 12 11 13 15
7 7 7 5 3 6 4 9 3 2 5 11 8 7 8 9 10 11 10 5 5 4 3 7 4 7 11 8 7 7 0 4 7 9 6 8 8 9 14 12 11 12 13 14 15
7 7 8 9 4 6 8 10 2 2 5 6 6 4 10 13 9 13 9 8 11 5 6 3 4 8 9 3 3 7 2 8 8 5 8 6 4 14 8 9 12 14 14 14 14
7 8 9 9 8 8 10 6 5 7 6 5 6 10 13 14 8 8 10 10 2 9 12 12 9 7 5 2 4 3 7 6 6 5 3 5 8 10 13 9 13 13 14 13 10
7 8 10 10 7 11 8 8 6 8 5 6 5 9 16 11 11 10 12 14 9 9 11 8 12 7 7 7 6 10 9 7 7 7 8 4 6 12 10 4 3 4 3 2 5
6 8 10 11 11 13 9 7 9 5 4 3 3 6 13 11 11 10 8 8 10 8 4 5 11 12 10 10 2 15 14 5 4 3 10 5 4 8 7 7 5 5 4 5 6
5 6 8 13 13 12 10 11 8 3 2 2 5 10 12 9 3 12 10 6 6 13 7 9 14 4 4 7 8 10 8 6 6 1 6 6 6 8 9 9 11 13 12 14 16
3 5 4 12 16 11 9 15 4 1 2 4 5 5 14 15 12 11 10 12 13 14 17 2 3 3 5 6 4 8 2 6 6 2 3 6 2 8 11 10 11 13 16 18 19
5 5 5 12 17 11 11 14 6 4 4 3 3 4 1 4 13 18 8 4 17 13 12 6 7 5 5 11 10 6 9 4 3 5 3 5 4 9 8 9 12 15 16 17 17
3 4 5 19 11 16 12 12 3 9 6 3 3 3 5 1 7 12 12 1 9 12 8 10 6 1 20 6 3 8 9 9 7 9 4 7 5 5 7 11 15 16 16 17 17
3 2 10 10 8 10 12 11 11 9 8 6 5 0 4 3 2 5 4 3 11 9 2 5 9 11 10 4 5 10 9 9 4 3 5 8 7 8 11 13 15 17 16 16 16
3 5 6 11 10 10 16 16 16 11 4 1 1 6 2 1 0 6 8 4 4 5 6 8 7 12 10 5 4 8 10 11 11 7 8 10 12 11 12 13 15 16 15 14 14
5 3 3 9 14 11 15 11 17 14 9 8 7 12 6 4 14 7 10 9 12 14 12 8 7 18 10 3 2 4 10 11 10 4 7 8 4 13 12 12 15 15 13 12 11
4 4 5 4 16 13 10 14 15 15 5 9 12 15 11 6 4 16 17 15 10 16 13 7 9 7 2 3 4 6 5 6 4 1 1 3 6 11 15 14 13 13 11 10 9
4 4 4 7 13 12 13 12 13 11 6 12 3 7 13 21 24 27 24 23 15 13 16 11 8 10 6 9 4 9 7 5 4 2 2 4 8 12 14 14 14 11 8 8 7
Wind_Direction
326 323 313 302 289 276 255 251 258 267 277 287 298 310 316 323 320 322 319 208 188 185 170 172 189 205 223 262 255 277 244 76 58 25 61 140 155 134 106 141 101 80 84 146 157
324 316 308 299 287 279 270 251 251 265 275 284 298 312 320 329 342 8 285 169 167 172 161 171 201 192 232 261 245 254 299 54 44 31 31 178 230 137 158 157 141 103 117 148 154
312 308 300 290 280 274 271 261 256 266 273 285 296 315 323 334 300 63 105 177 173 172 174 205 191 198 242 245 242 271 3 84 66 356 292 162 178 141 288 193 137 157 147 154 160
304 302 295 292 277 265 264 267 260 264 273 282 297 317 324 328 5 5 137 157 171 172 175 190 209 216 220 245 247 244 91 64 18 353 304 161 128 117 38 11 78 142 154 159 167
297 297 290 283 276 263 264 267 265 266 272 285 299 318 336 289 149 314 168 161 166 164 183 229 253 232 240 221 242 247 97 315 28 6 102 137 122 98 84 88 100 131 149 160 169
294 293 288 284 273 267 262 265 268 267 276 285 299 314 330 274 237 220 177 164 170 168 225 314 299 192 212 275 246 30 249 270 155 104 130 129 131 155 113 119 115 136 151 161 169
290 289 283 278 272 265 263 266 270 270 277 281 296 311 296 271 255 215 163 166 160 148 114 76 210 268 204 212 301 276 236 154 143 158 118 140 137 81 141 135 129 144 157 162 167
286 285 282 277 273 265 264 264 270 267 272 277 291 307 271 270 272 179 164 157 175 190 349 342 274 259 270 244 223 236 230 207 119 191 156 254 95 129 154 148 142 147 159 175 181
281 280 278 277 273 264 265 263 267 266 269 272 291 295 267 288 204 187 175 178 167 169 358 16 244 272 208 223 222 211 144 225 142 187 166 268 104 148 164 162 154 153 164 175 185
279 277 275 271 268 261 262 267 261 267 261 269 256 266 226 187 172 183 189 177 191 178 222 242 269 251 215 217 226 176 172 162 150 143 209 170 110 146 171 181 169 167 170 179 188
279 270 270 263 260 258 247 260 259 228 219 227 327 262 114 64 128 191 178 179 187 212 257 288 270 255 316 183 72 131 156 172 163 181 264 104 157 146 169 190 179 180 187 195 203
276 266 257 253 246 249 231 224 232 141 286 238 240 250 238 248 240 178 176 204 210 247 199 239 243 162 230 185 234 211 213 186 127 327 230 117 121 139 166 191 187 195 195 200 203
269 258 247 241 238 240 213 207 191 352 263 194 218 237 227 208 229 180 186 203 233 237 234 258 59 184 194 186 227 207 252 181 61 132 171 197 142 150 172 187 200 212 216 217 219
261 243 234 226 231 219 206 202 213 285 258 159 199 213 188 196 214 187 191 205 195 270 261 251 214 231 225 240 238 169 178 223 181 217 121 236 121 174 161 182 203 216 216 220 225
252 229 218 197 170 161 208 187 247 199 243 114 147 173 174 194 123 192 199 214 243 208 251 106 240 222 232 256 224 43 204 187 186 189 198 168 250 137 162 187 178 181 190 203 211
247 221 208 204 202 190 174 197 171 222 223 143 146 183 178 201 186 140 188 208 246 248 242 258 265 261 233 228 226 148 139 164 187 228 190 92 278 153 173 189 173 171 175 182 202
243 216 204 188 186 180 184 162 211 235 104 151 168 183 196 184 186 206 185 195 224 212 227 189 223 211 229 224 169 203 219 173 195 198 82 107 249 102 119 95 302 300 306 299 287
237 211 202 192 178 176 174 217 231 187 209 100 192 194 204 181 203 190 165 196 233 253 234 201 197 191 176 232 237 201 249 302 201 208 116 155 198 107 83 67 88 123 102 89 68
227 206 199 194 184 172 196 215 213 151 95 222 176 206 196 189 237 211 206 204 223 223 251 140 243 149 193 196 241 160 224 339 295 182 261 127 119 142 116 85 102 104 99 90 88
192 169 195 191 184 180 217 233 149 230 155 218 247 253 193 193 197 210 195 210 228 236 233 336 264 226 112 198 217 272 119 204 223 197 266 133 228 102 156 112 114 106 102 99 99
164 203 230 184 171 202 214 213 207 159 173 241 146 197 102 220 204 200 215 181 195 187 214 250 230 226 200 206 196 174 217 240 324 294 308 220 143 90 127 136 127 116 112 110 105
185 216 193 162 192 208 219 214 215 167 168 132 131 93 70 6 250 232 216 239 172 150 185 222 243 182 242 123 295 253 256 214 228 174 240 310 84 85 124 137 132 122 119 114 110
215 132 172 171 209 196 209 208 226 184 187 170 153 198 99 10 261 301 237 141 166 177 197 220 235 236 195 191 191 218 193 243 264 267 183 284 105 119 127 134 134 130 124 120 114
221 181 163 211 255 251 197 210 203 207 225 168 332 141 154 110 270 304 300 162 223 228 90 290 266 279 287 167 121 193 190 215 227 209 151 240 121 154 147 146 143 133 127 122 114
220 222 178 188 215 228 207 201 210 209 208 194 205 227 172 43 359 349 325 260 176 194 178 244 199 262 304 299 218 190 173 187 228 319 273 41 340 151 157 153 149 137 131 123 112
272 280 191 294 207 213 197 208 220 211 207 205 222 203 155 107 259 269 293 275 255 178 191 184 230 252 141 33 197 180 173 202 216 222 245 294 105 132 150 143 150 147 142 130 120
283 282 269 157 202 206 203 207 214 223 191 262 317 218 181 171 217 291 299 257 250 187 194 172 215 227 185 6 323 211 168 180 127 195 314 228 93 146 161 166 161 155 151 142 129